Regional Weather Roundup
Issued by NWS

Home | Current Version | Previous Version | Text Only | Print | Product List | Glossary Off
Versions: 1 2 3 4 5 6 7 8 9 10 11 12 13 14 15 16 17 18 19 20 21 22 23 24 25 26 27 28 29 30 31 32 33 34 35 36 37 38 39 40 41 42 43 44 45 46 47 48 49 50

000
ASUS43 KLOT 231458
RWRIL

ILLINOIS REGIONAL WEATHER ROUNDUP
NATIONAL WEATHER SERVICE CHICAGO/ROMEOVILLE IL
1000 AM CDT THU OCT 23 2014

NOTE: "FAIR" INDICATES FEW OR NO CLOUDS BELOW 12,000 FEET WITH NO
SIGNIFICANT WEATHER AND/OR OBSTRUCTIONS TO VISIBILITY.

* THESE STATIONS ARE NOT UNDER NWS QUALITY CONTROL. THEY ALSO MAY NOT
  REPORT WEATHER SUCH AS PRECIPITATION OR FOG.

ILZ001-002-007-009-015-016-024-231600-
NORTHWEST ILLINOIS

CITY           SKY/WX    TMP DP  RH WIND       PRES   REMARKS
MOLINE         CLOUDY    51  42  71 S9        30.13S
$$

ILZ003-004-008-010-011-017-018-231600-
NORTH CENTRAL ILLINOIS

CITY           SKY/WX    TMP DP  RH WIND       PRES   REMARKS
ROCKFORD       NOT AVBL
$$

ILZ005-006-012>014-019>023-231600-
NORTHEAST ILLINOIS

CITY           SKY/WX    TMP DP  RH WIND       PRES   REMARKS
CHICAGO-OHARE  PTSUNNY   49  41  74 S10       30.21F
CHICAGO-MIDWAY PTSUNNY   51  42  71 S10       30.22F
AURORA         MOSUNNY   49  41  74 S8        30.21F
WAUKEGAN       NOT AVBL
DUPAGE AIRPORT MOSUNNY   48  41  76 S9        30.21S
WHEELING       SUNNY     51  41  68 S9        30.23F
NORTHERLY ISL    N/A     49  39  68 S10         N/A
$$

LMZ740>746-231600-
SOUTHERN LAKE MICHIGAN

STATION/POSITION SKY/WX   TEMP    WIND        PRES    VSBY  WAVE
                          AIR SEA DIR/SP/G                  HT/PER
                          (F)     (DEG/KT/KT) (MB)    (MI)  (FT/S)
SOUTHERN BUOY              51 54  200/ 12/ 14 1023.6R         2/ 4
WAUKEGAN HARBOR            47     210/ 10/ 12   N/A
HARRISON CRIB              46     200/ 12/ 14   N/A
BURNHAM HARBOR             48     190/  9/  9   N/A
CALUMET HARBOR             46     190/  9/ 12 1022.4S
MICHIGAN CITY              44     150/  9/ 11   N/A
$$

ILZ025>027-034>036-040-047-049-050-058-095>099-231600-
WEST-CENTRAL ILLINOIS

CITY           SKY/WX    TMP DP  RH WIND       PRES   REMARKS
$$

ILZ028>032-037-038-041>044-048-051>054-059>061-231600-
CENTRAL ILLINOIS

CITY           SKY/WX    TMP DP  RH WIND       PRES   REMARKS
PEORIA         NOT AVBL
SPRINGFIELD    CLOUDY    51  42  71 S9        30.22S
TAYLORVILLE    NOT AVBL
$$

ILZ033-039-045-046-055>057-062-063-231600-
EAST-CENTRAL ILLINOIS

CITY           SKY/WX    TMP DP  RH WIND       PRES   REMARKS
CHAMPAIGN      MOSUNNY   51  44  77 S9        30.24S
MATTOON        MOSUNNY   49  42  77 S9        30.23F
$$

ILZ079-100>102-231600-
SOUTHWEST ILLINOIS

CITY           SKY/WX    TMP DP  RH WIND       PRES   REMARKS
ALTON          CLOUDY    48  45  87 SE6       30.23R
CAHOKIA*       MOSUNNY   55  45  68 SE9       30.22S
$$

ILZ064>066-069>071-074>076-080>082-084>086-088>090-092>094-231600-
SOUTH-CENTRAL ILLINOIS

CITY           SKY/WX    TMP DP  RH WIND       PRES   REMARKS
CARBONDALE     PTSUNNY  N/A N/A N/A VRB3      30.25S
$$

ILZ067-068-072-073-078-083-087-091-231600-
SOUTHEAST ILLINOIS

CITY           SKY/WX    TMP DP  RH WIND       PRES   REMARKS
LAWRENCEVILLE  SUNNY     51  44  77 S7        30.26S
$$

ABBREVIATIONS USED IN REMARKS
   TC - TEMPERATURE IN CELSIUS
  WCI - WIND CHILL INDEX
   HX - HEAT INDEX
  VSB - VISIBILITY
$$




USA.gov is the U.S. government's official web portal to all federal, state and local government web resources and services.